User: anonymous   Login
Location: Unspecified
(42.1900°N, 71.3291°W)
Time: 10:25:15
(UTC-05:00)
Language:

Resurs 1-4 Rocket - Orbit

View from above orbital plane
View from above orbital plane
View from above satellite
View from above satellite

Ground track
Ground track

The orbit data is extracted from the following two-line orbital elements,

1 25400U 98043G   16343.42306844  .00000011  00000-0  22462-4 0  9995
2 25400  98.4634 292.0004 0010685 129.6109 230.6016 14.25398462957892
Epoch (UTC): 08 December 2016 10:09:13
Eccentricity: 0.0010685
inclination: 98.4634°
perigee height: 799 km
apogee height: 815 km
right ascension of ascending node: 292.0004°
argument of perigee: 129.6109°
revolutions per day: 14.25398462
mean anomaly at epoch: 230.6016°
orbit number at epoch: 95789

The dashed part of the orbit path shows where the satellite is in the earth's shadow,  

DLR